Wetterdaten: Woche 18.10.04 - 24.10.04 (KW43)
Datum Zeit Temperatur Luftfeuchte Luftdruck Niederschlag Taupunkt Windchill Wind
18.10.2004 00:00 7,4 C 77 % 1010 hPa 0,0 l/m 3,6 C 2,7 C 16,2 km/h (3 Bft)
18.10.2004 01:00 7,6 C 74 % 1010 hPa 0,0 l/m 3,4 C 2,7 C 18,0 km/h (3 Bft)
18.10.2004 02:00 8,2 C 71 % 1010 hPa 0,0 l/m 3,3 C 3,8 C 15,9 km/h (3 Bft)
18.10.2004 03:00 7,7 C 79 % 1010 hPa 0,0 l/m 4,3 C 6,3 C 9,5 km/h (2 Bft)
18.10.2004 04:00 7,0 C 87 % 1010 hPa 0,0 l/m 5,0 C 5,9 C 7,0 km/h (2 Bft)
18.10.2004 05:00 6,7 C 88 % 1011 hPa 0,0 l/m 5,0 C 4,1 C 10,2 km/h (2 Bft)
18.10.2004 06:00 7,5 C 82 % 1011 hPa 0,0 l/m 4,7 C 2,3 C 18,0 km/h (3 Bft)
18.10.2004 07:00 7,8 C 81 % 1011 hPa 0,0 l/m 4,8 C 3,5 C 15,5 km/h (3 Bft)
18.10.2004 08:00 7,8 C 83 % 1011 hPa 0,0 l/m 5,2 C 3,3 C 16,2 km/h (3 Bft)
18.10.2004 09:00 8,2 C 83 % 1012 hPa 0,0 l/m 5,6 C 4,1 C 14,5 km/h (3 Bft)
18.10.2004 10:00 9,3 C 76 % 1012 hPa 0,0 l/m 5,3 C 3,9 C 20,1 km/h (4 Bft)
18.10.2004 11:00 9,6 C 71 % 1013 hPa 0,0 l/m 4,6 C 4,2 C 19,7 km/h (3 Bft)
18.10.2004 12:00 9,1 C 77 % 1013 hPa 0,0 l/m 5,2 C 7,4 C 9,5 km/h (2 Bft)
18.10.2004 13:00 10,2 C 68 % 1013 hPa 0,0 l/m 4,5 C 5,4 C 17,6 km/h (3 Bft)
18.10.2004 14:00 11,5 C 66 % 1013 hPa 0,0 l/m 5,4 C 8,7 C 13,8 km/h (3 Bft)
18.10.2004 15:00 10,3 C 72 % 1013 hPa 0,0 l/m 5,5 C 7,2 C 13,2 km/h (3 Bft)
18.10.2004 16:00 10,3 C 69 % 1013 hPa 0,0 l/m 4,8 C 6,5 C 15,3 km/h (3 Bft)
18.10.2004 17:00 10,0 C 69 % 1013 hPa 0,0 l/m 4,6 C 6,8 C 12,7 km/h (3 Bft)
18.10.2004 18:00 9,5 C 72 % 1013 hPa 0,0 l/m 4,7 C 7,4 C 11,7 km/h (2 Bft)
18.10.2004 19:00 8,4 C 76 % 1014 hPa 0,0 l/m 4,4 C 8,3 C 1,1 km/h (0 Bft)
18.10.2004 20:00 7,3 C 83 % 1014 hPa 0,0 l/m 4,6 C 7,3 C 0,0 km/h (0 Bft)
18.10.2004 21:00 6,4 C 87 % 1014 hPa 0,0 l/m 4,4 C 6,4 C 0,0 km/h (0 Bft)
18.10.2004 22:00 5,6 C 91 % 1014 hPa 0,0 l/m 4,3 C 5,6 C 0,0 km/h (0 Bft)
18.10.2004 23:00 5,1 C 94 % 1014 hPa 0,0 l/m 4,2 C 5,1 C 0,0 km/h (0 Bft)
19.10.2004 00:00 4,4 C 95 % 1014 hPa 0,0 l/m 3,7 C 4,4 C 0,0 km/h (0 Bft)
19.10.2004 01:00 3,7 C 96 % 1014 hPa 0,0 l/m 3,2 C 3,7 C 0,0 km/h (0 Bft)
19.10.2004 02:00 3,1 C 97 % 1014 hPa 0,0 l/m 2,7 C 3,1 C 0,0 km/h (0 Bft)
19.10.2004 03:00 2,7 C 98 % 1013 hPa 0,0 l/m 2,4 C 2,7 C 0,0 km/h (0 Bft)
19.10.2004 04:00 2,8 C 99 % 1013 hPa 0,0 l/m 2,6 C 2,8 C 0,0 km/h (0 Bft)
19.10.2004 05:00 3,3 C 100 % 1012 hPa 0,0 l/m 3,3 C 3,3 C 0,0 km/h (0 Bft)
19.10.2004 06:00 3,8 C 100 % 1012 hPa 0,0 l/m 3,8 C 3,8 C 0,0 km/h (0 Bft)
19.10.2004 07:00 4,4 C 100 % 1012 hPa 0,0 l/m 4,4 C 4,4 C 1,0 km/h (0 Bft)
19.10.2004 08:00 4,6 C 100 % 1011 hPa 0,0 l/m 4,6 C 4,6 C 0,0 km/h (0 Bft)
19.10.2004 09:00 5,1 C 100 % 1012 hPa 0,0 l/m 5,1 C 5,1 C 0,9 km/h (0 Bft)
19.10.2004 10:00 5,8 C 100 % 1011 hPa 0,0 l/m 5,8 C 5,8 C 0,7 km/h (0 Bft)
19.10.2004 11:00 6,7 C 100 % 1011 hPa 0,0 l/m 6,7 C 6,6 C 2,9 km/h (1 Bft)
19.10.2004 12:00 7,6 C 100 % 1011 hPa 0,0 l/m 7,6 C 7,6 C 1,3 km/h (1 Bft)
19.10.2004 13:00 8,4 C 98 % 1011 hPa 1,0 l/m 8,0 C 8,4 C 0,0 km/h (0 Bft)
19.10.2004 14:00 9,0 C 96 % 1011 hPa 0,0 l/m 8,5 C 9,0 C 0,0 km/h (0 Bft)
19.10.2004 15:00 9,7 C 96 % 1011 hPa 0,0 l/m 9,1 C 9,7 C 0,0 km/h (0 Bft)
19.10.2004 16:00 10,0 C 97 % 1011 hPa 0,0 l/m 9,5 C 10,0 C 0,0 km/h (0 Bft)
19.10.2004 17:00 10,0 C 98 % 1011 hPa 0,0 l/m 9,8 C 10,0 C 0,0 km/h (0 Bft)
19.10.2004 18:00 9,7 C 100 % 1011 hPa 1,0 l/m 9,7 C 9,7 C 0,0 km/h (0 Bft)
19.10.2004 19:00 9,3 C 100 % 1012 hPa 0,0 l/m 9,3 C 9,3 C 0,0 km/h (0 Bft)
19.10.2004 20:00 9,0 C 100 % 1012 hPa 0,0 l/m 9,0 C 9,0 C 0,0 km/h (0 Bft)
19.10.2004 21:00 8,9 C 100 % 1012 hPa 0,0 l/m 8,9 C 8,9 C 0,0 km/h (0 Bft)
19.10.2004 22:00 8,9 C 100 % 1012 hPa 0,0 l/m 8,9 C 8,9 C 0,0 km/h (0 Bft)
19.10.2004 23:00 9,0 C 100 % 1012 hPa 0,0 l/m 9,0 C 8,9 C 1,9 km/h (1 Bft)
20.10.2004 00:00 9,6 C 100 % 1012 hPa 1,0 l/m 9,6 C 8,9 C 6,5 km/h (2 Bft)
20.10.2004 01:00 10,0 C 100 % 1012 hPa 0,0 l/m 10,0 C 9,7 C 5,4 km/h (1 Bft)
20.10.2004 02:00 10,3 C 100 % 1012 hPa 1,0 l/m 10,3 C 10,0 C 4,0 km/h (1 Bft)
20.10.2004 03:00 10,3 C 100 % 1012 hPa 0,0 l/m 10,3 C 10,2 C 1,2 km/h (1 Bft)
20.10.2004 04:00 10,1 C 100 % 1011 hPa 0,0 l/m 10,1 C 10,1 C 0,0 km/h (0 Bft)
20.10.2004 05:00 9,7 C 100 % 1011 hPa 0,0 l/m 9,7 C 9,7 C 0,0 km/h (0 Bft)
20.10.2004 06:00 9,1 C 100 % 1011 hPa 0,0 l/m 9,1 C 9,1 C 0,5 km/h (0 Bft)
20.10.2004 07:00 8,5 C 100 % 1010 hPa 0,0 l/m 8,5 C 8,5 C 0,0 km/h (0 Bft)
20.10.2004 08:00 8,5 C 100 % 1010 hPa 0,0 l/m 8,5 C 8,5 C 0,6 km/h (0 Bft)
20.10.2004 09:00 9,4 C 100 % 1010 hPa 0,0 l/m 9,4 C 9,4 C 0,2 km/h (0 Bft)
20.10.2004 10:00 10,3 C 100 % 1010 hPa 0,0 l/m 10,3 C 10,3 C 0,7 km/h (0 Bft)
20.10.2004 11:00 11,8 C 100 % 1010 hPa 0,0 l/m 11,8 C 11,8 C 0,7 km/h (0 Bft)
20.10.2004 12:00 13,3 C 100 % 1010 hPa 0,0 l/m 13,3 C 12,7 C 7,8 km/h (2 Bft)
20.10.2004 13:00 13,9 C 97 % 1010 hPa 0,0 l/m 13,3 C 13,8 C 0,9 km/h (0 Bft)
20.10.2004 14:00 14,7 C 92 % 1009 hPa 0,0 l/m 13,4 C 14,2 C 3,4 km/h (1 Bft)
20.10.2004 15:00 14,8 C 91 % 1009 hPa 0,0 l/m 13,3 C 14,6 C 2,3 km/h (1 Bft)
20.10.2004 16:00 14,6 C 91 % 1009 hPa 0,0 l/m 13,3 C 14,3 C 4,4 km/h (1 Bft)
20.10.2004 17:00 14,0 C 93 % 1009 hPa 0,0 l/m 12,9 C 13,8 C 6,3 km/h (2 Bft)
20.10.2004 18:00 13,4 C 95 % 1009 hPa 0,0 l/m 12,6 C 13,4 C 0,6 km/h (0 Bft)
20.10.2004 19:00 12,9 C 97 % 1009 hPa 1,0 l/m 12,4 C 12,9 C 1,1 km/h (1 Bft)
20.10.2004 20:00 12,6 C 98 % 1009 hPa 0,0 l/m 12,3 C 12,6 C 1,1 km/h (1 Bft)
20.10.2004 21:00 12,3 C 99 % 1009 hPa 0,0 l/m 12,2 C 12,3 C 0,4 km/h (0 Bft)
20.10.2004 22:00 12,0 C 100 % 1009 hPa 0,0 l/m 12,0 C 12,0 C 0,0 km/h (0 Bft)
20.10.2004 23:00 11,9 C 100 % 1009 hPa 0,0 l/m 11,9 C 11,9 C 0,3 km/h (0 Bft)
21.10.2004 00:00 11,7 C 100 % 1009 hPa 0,0 l/m 11,7 C 11,7 C 0,6 km/h (0 Bft)
21.10.2004 01:00 11,5 C 100 % 1009 hPa 0,0 l/m 11,5 C 11,5 C 0,0 km/h (0 Bft)
21.10.2004 02:00 11,3 C 100 % 1009 hPa 0,0 l/m 11,3 C 11,3 C 0,0 km/h (0 Bft)
21.10.2004 03:00 11,1 C 100 % 1009 hPa 0,0 l/m 11,1 C 10,7 C 4,0 km/h (1 Bft)
21.10.2004 04:00 10,9 C 100 % 1010 hPa 2,0 l/m 10,9 C 10,3 C 3,6 km/h (1 Bft)
21.10.2004 05:00 12,0 C 100 % 1011 hPa 2,0 l/m 12,0 C 8,9 C 13,6 km/h (3 Bft)
21.10.2004 06:00 12,4 C 100 % 1012 hPa 1,0 l/m 12,4 C 8,3 C 16,8 km/h (3 Bft)
21.10.2004 07:00 12,7 C 100 % 1013 hPa 1,0 l/m 12,7 C 9,7 C 13,4 km/h (3 Bft)
21.10.2004 08:00 13,2 C 100 % 1014 hPa 3,0 l/m 13,2 C 10,1 C 13,8 km/h (3 Bft)
21.10.2004 09:00 13,3 C 100 % 1015 hPa 0,0 l/m 13,3 C 9,3 C 16,2 km/h (3 Bft)
21.10.2004 10:00 13,7 C 100 % 1016 hPa 0,0 l/m 13,7 C 9,3 C 18,5 km/h (3 Bft)
21.10.2004 11:00 14,2 C 100 % 1016 hPa 0,0 l/m 14,2 C 10,1 C 17,6 km/h (3 Bft)
21.10.2004 12:00 15,3 C 96 % 1017 hPa 0,0 l/m 14,7 C 11,9 C 16,5 km/h (3 Bft)
21.10.2004 13:00 16,6 C 81 % 1017 hPa 0,0 l/m 13,3 C 13,9 C 15,2 km/h (3 Bft)
21.10.2004 14:00 17,8 C 69 % 1017 hPa 0,0 l/m 12,0 C 14,7 C 16,7 km/h (3 Bft)
21.10.2004 15:00 18,1 C 63 % 1017 hPa 0,0 l/m 10,9 C 15,8 C 13,5 km/h (3 Bft)
21.10.2004 16:00 16,7 C 69 % 1017 hPa 0,0 l/m 11,0 C 15,0 C 11,9 km/h (2 Bft)
21.10.2004 17:00 15,8 C 72 % 1017 hPa 0,0 l/m 10,8 C 14,9 C 7,1 km/h (2 Bft)
21.10.2004 18:00 14,5 C 79 % 1018 hPa 0,0 l/m 11,0 C 14,5 C 1,5 km/h (1 Bft)
21.10.2004 19:00 13,9 C 85 % 1019 hPa 0,0 l/m 11,4 C 13,8 C 2,4 km/h (1 Bft)
21.10.2004 20:00 13,3 C 87 % 1019 hPa 0,0 l/m 11,2 C 13,1 C 6,2 km/h (2 Bft)
21.10.2004 21:00 12,1 C 90 % 1020 hPa 0,0 l/m 10,5 C 12,1 C 0,6 km/h (0 Bft)
21.10.2004 22:00 10,7 C 92 % 1020 hPa 0,0 l/m 9,5 C 10,7 C 0,0 km/h (0 Bft)
21.10.2004 23:00 9,6 C 95 % 1020 hPa 0,0 l/m 8,8 C 9,6 C 0,0 km/h (0 Bft)
22.10.2004 00:00 8,9 C 97 % 1021 hPa 0,0 l/m 8,5 C 8,9 C 0,0 km/h (0 Bft)
22.10.2004 01:00 8,5 C 99 % 1021 hPa 0,0 l/m 8,3 C 8,5 C 0,0 km/h (0 Bft)
22.10.2004 02:00 8,0 C 99 % 1021 hPa 0,0 l/m 7,9 C 8,0 C 0,0 km/h (0 Bft)
22.10.2004 03:00 7,5 C 100 % 1020 hPa 0,0 l/m 7,5 C 7,5 C 0,0 km/h (0 Bft)
22.10.2004 04:00 7,7 C 100 % 1020 hPa 0,0 l/m 7,7 C 7,7 C 0,0 km/h (0 Bft)
22.10.2004 05:00 7,6 C 100 % 1020 hPa 0,0 l/m 7,6 C 7,6 C 0,2 km/h (0 Bft)
22.10.2004 06:00 7,2 C 100 % 1020 hPa 0,0 l/m 7,2 C 7,0 C 1,7 km/h (1 Bft)
22.10.2004 07:00 7,0 C 100 % 1020 hPa 0,0 l/m 7,0 C 7,0 C 0,4 km/h (0 Bft)
22.10.2004 08:00 7,3 C 100 % 1021 hPa 0,0 l/m 7,3 C 7,3 C 0,7 km/h (0 Bft)
22.10.2004 09:00 8,2 C 100 % 1021 hPa 0,0 l/m 8,2 C 8,2 C 0,0 km/h (0 Bft)
22.10.2004 10:00 9,3 C 100 % 1021 hPa 0,0 l/m 9,3 C 9,2 C 1,2 km/h (1 Bft)
22.10.2004 11:00 10,9 C 100 % 1021 hPa 0,0 l/m 10,9 C 10,8 C 1,3 km/h (1 Bft)
22.10.2004 12:00 13,7 C 93 % 1020 hPa 0,0 l/m 12,5 C 13,7 C 0,3 km/h (0 Bft)
22.10.2004 13:00 17,5 C 70 % 1020 hPa 0,0 l/m 11,9 C 17,2 C 4,3 km/h (1 Bft)
22.10.2004 14:00 19,4 C 60 % 1020 hPa 0,0 l/m 11,5 C 18,9 C 5,8 km/h (2 Bft)
22.10.2004 15:00 19,9 C 56 % 1019 hPa 0,0 l/m 10,8 C 19,8 C 3,0 km/h (1 Bft)
22.10.2004 16:00 18,7 C 60 % 1019 hPa 0,0 l/m 10,6 C 18,7 C 0,0 km/h (0 Bft)
22.10.2004 17:00 17,2 C 71 % 1019 hPa 0,0 l/m 12,0 C 17,2 C 0,0 km/h (0 Bft)
22.10.2004 18:00 14,9 C 80 % 1019 hPa 0,0 l/m 11,5 C 14,9 C 0,0 km/h (0 Bft)
22.10.2004 19:00 13,0 C 86 % 1019 hPa 0,0 l/m 10,8 C 13,0 C 0,0 km/h (0 Bft)
22.10.2004 20:00 11,8 C 91 % 1019 hPa 0,0 l/m 10,4 C 11,8 C 0,0 km/h (0 Bft)
22.10.2004 21:00 11,3 C 94 % 1019 hPa 0,0 l/m 10,3 C 11,3 C 0,0 km/h (0 Bft)
22.10.2004 22:00 11,3 C 96 % 1019 hPa 0,0 l/m 10,8 C 11,3 C 0,0 km/h (0 Bft)
22.10.2004 23:00 11,0 C 98 % 1019 hPa 0,0 l/m 10,7 C 11,0 C 0,0 km/h (0 Bft)
23.10.2004 00:00 10,5 C 99 % 1020 hPa 0,0 l/m 10,4 C 10,5 C 0,0 km/h (0 Bft)
23.10.2004 01:00 10,1 C 100 % 1020 hPa 0,0 l/m 10,1 C 10,1 C 0,0 km/h (0 Bft)
23.10.2004 02:00 10,1 C 100 % 1020 hPa 0,0 l/m 10,1 C 10,1 C 0,5 km/h (0 Bft)
23.10.2004 03:00 9,6 C 100 % 1020 hPa 0,0 l/m 9,6 C 9,6 C 0,3 km/h (0 Bft)
23.10.2004 04:00 9,4 C 100 % 1019 hPa 0,0 l/m 9,4 C 9,4 C 0,0 km/h (0 Bft)
23.10.2004 05:00 9,2 C 100 % 1019 hPa 0,0 l/m 9,2 C 9,2 C 0,0 km/h (0 Bft)
23.10.2004 06:00 9,1 C 100 % 1019 hPa 0,0 l/m 9,1 C 9,1 C 0,0 km/h (0 Bft)
23.10.2004 07:00 9,2 C 100 % 1019 hPa 0,0 l/m 9,2 C 9,2 C 0,0 km/h (0 Bft)
23.10.2004 08:00 9,2 C 100 % 1020 hPa 0,0 l/m 9,2 C 9,2 C 0,0 km/h (0 Bft)
23.10.2004 09:00 10,2 C 100 % 1020 hPa 0,0 l/m 10,2 C 9,7 C 3,8 km/h (1 Bft)
23.10.2004 10:00 12,3 C 100 % 1020 hPa 0,0 l/m 12,3 C 8,5 C 14,8 km/h (3 Bft)
23.10.2004 11:00 14,8 C 92 % 1020 hPa 0,0 l/m 13,4 C 12,9 C 11,6 km/h (2 Bft)
23.10.2004 12:00 16,7 C 81 % 1020 hPa 0,0 l/m 13,4 C 14,3 C 14,0 km/h (3 Bft)
23.10.2004 13:00 18,7 C 70 % 1020 hPa 0,0 l/m 13,2 C 16,6 C 13,5 km/h (3 Bft)
23.10.2004 14:00 19,5 C 64 % 1019 hPa 0,0 l/m 12,5 C 17,6 C 13,3 km/h (3 Bft)
23.10.2004 15:00 19,8 C 59 % 1018 hPa 0,0 l/m 11,4 C 17,4 C 15,8 km/h (3 Bft)
23.10.2004 16:00 18,5 C 61 % 1018 hPa 0,0 l/m 10,9 C 16,8 C 12,3 km/h (3 Bft)
23.10.2004 17:00 16,9 C 71 % 1018 hPa 0,0 l/m 11,5 C 16,6 C 3,5 km/h (1 Bft)
23.10.2004 18:00 15,2 C 79 % 1018 hPa 0,0 l/m 11,5 C 15,2 C 0,0 km/h (0 Bft)
23.10.2004 19:00 13,4 C 88 % 1018 hPa 0,0 l/m 11,4 C 13,4 C 0,9 km/h (0 Bft)
23.10.2004 20:00 11,9 C 91 % 1018 hPa 0,0 l/m 10,5 C 11,9 C 0,0 km/h (0 Bft)
23.10.2004 21:00 10,8 C 94 % 1018 hPa 0,0 l/m 9,8 C 10,8 C 0,0 km/h (0 Bft)
23.10.2004 22:00 10,2 C 96 % 1018 hPa 0,0 l/m 9,6 C 10,2 C 0,0 km/h (0 Bft)
23.10.2004 23:00 9,5 C 98 % 1018 hPa 0,0 l/m 9,2 C 9,5 C 0,0 km/h (0 Bft)
24.10.2004 00:00 8,7 C 99 % 1018 hPa 0,0 l/m 8,5 C 8,7 C 0,0 km/h (0 Bft)
24.10.2004 01:00 7,7 C 99 % 1018 hPa 0,0 l/m 7,6 C 7,7 C 0,0 km/h (0 Bft)
24.10.2004 02:00 7,0 C 99 % 1017 hPa 0,0 l/m 6,8 C 7,0 C 0,0 km/h (0 Bft)
24.10.2004 03:00 6,4 C 100 % 1017 hPa 0,0 l/m 6,4 C 6,4 C 0,0 km/h (0 Bft)
24.10.2004 04:00 6,1 C 100 % 1017 hPa 0,0 l/m 6,1 C 6,1 C 0,0 km/h (0 Bft)
24.10.2004 05:00 6,4 C 100 % 1017 hPa 0,0 l/m 6,4 C 6,4 C 0,8 km/h (0 Bft)
24.10.2004 06:00 6,2 C 100 % 1017 hPa 0,0 l/m 6,2 C 6,2 C 0,0 km/h (0 Bft)
24.10.2004 07:00 5,8 C 100 % 1017 hPa 0,0 l/m 5,8 C 5,8 C 0,0 km/h (0 Bft)
24.10.2004 08:00 5,8 C 100 % 1017 hPa 0,0 l/m 5,8 C 5,8 C 0,0 km/h (0 Bft)
24.10.2004 09:00 7,8 C 100 % 1017 hPa 0,0 l/m 7,8 C 7,6 C 1,6 km/h (1 Bft)
24.10.2004 10:00 10,7 C 100 % 1018 hPa 0,0 l/m 10,7 C 9,8 C 8,6 km/h (2 Bft)
24.10.2004 11:00 14,1 C 79 % 1018 hPa 0,0 l/m 10,4 C 12,1 C 12,1 km/h (2 Bft)
24.10.2004 12:00 16,8 C 66 % 1017 hPa 0,0 l/m 10,5 C 14,6 C 13,1 km/h (3 Bft)
24.10.2004 13:00 19,0 C 59 % 1017 hPa 0,0 l/m 10,7 C 16,7 C 13,8 km/h (3 Bft)
24.10.2004 14:00 20,4 C 53 % 1016 hPa 0,0 l/m 10,6 C 18,5 C 13,1 km/h (3 Bft)
24.10.2004 15:00 20,8 C 48 % 1015 hPa 0,0 l/m 9,3 C 19,5 C 11,3 km/h (2 Bft)
24.10.2004 16:00 19,6 C 50 % 1015 hPa 0,0 l/m 9,0 C 19,4 C 3,7 km/h (1 Bft)
24.10.2004 17:00 17,9 C 64 % 1014 hPa 0,0 l/m 11,1 C 17,9 C 0,6 km/h (0 Bft)
24.10.2004 18:00 15,1 C 73 % 1014 hPa 0,0 l/m 10,3 C 15,1 C 0,0 km/h (0 Bft)
24.10.2004 19:00 12,8 C 80 % 1013 hPa 0,0 l/m 9,4 C 12,8 C 0,0 km/h (0 Bft)
24.10.2004 20:00 11,2 C 87 % 1013 hPa 0,0 l/m 9,1 C 11,2 C 0,0 km/h (0 Bft)
24.10.2004 21:00 10,2 C 91 % 1014 hPa 0,0 l/m 8,8 C 10,2 C 0,0 km/h (0 Bft)
24.10.2004 22:00 9,3 C 94 % 1014 hPa 0,0 l/m 8,4 C 9,3 C 0,0 km/h (0 Bft)
24.10.2004 23:00 8,7 C 96 % 1014 hPa 0,0 l/m 8,1 C 8,7 C 0,6 km/h (0 Bft)
Min-Datum _ 19.10.04 24.10.04 20.10.04 - 19.10.04 18.10.04 18.10.04
_ Min-Zeit 03:47 15:41 21:11 - 03:47 07:09 00:19
Minimum _ 2,5 C 45 % 1008 hPa - 2,2 C -1,6 C 0,0 km/h (0 Bft)
Max-Datum _ 24.10.04 19.10.04 22.10.04 21.10.04 21.10.04 24.10.04 18.10.04
_ Max-Zeit 15:05 05:16 00:41 07:00 12:22 15:03 11:49
Maximum _ 21,1 C 100 % 1021 hPa 3,0 l/m 15,2 C 21,0 C 46,4 km/h
S (6 Bft)
Durchschnitt _ 10,8 C 90 % 1015 hPa #14,0 l/m 9,0 C 10,0 C 4,4 km/h (1 Bft)

Durchschnitt Minimum Temp.10,2 C
Durchschnitt Maximum Temp.11,4 C